| time (UTC) | temp C | wind direction | speed KPH | gust KPH | rain 1hr cm | rain 24hr cm | rain mn cm | humidity % | barometer mb |
| 20260903180107 | 22 | 237 | 0.0 | 1.6 | 0.00 | 2.03 | 2.03 | 94 | 1014.0 |
| 20260903174612 | 22 | 129 | 0.0 | 1.6 | 0.03 | 2.03 | 2.03 | 94 | 1014.0 |
| 20260903173109 | 22 | 81 | 0.0 | 3.2 | 0.18 | 2.03 | 2.03 | 94 | 1014.0 |
| 20260903171601 | 22 | 84 | 1.6 | 9.7 | 0.33 | 2.03 | 2.03 | 94 | 1013.2 |
| 20260903170110 | 22 | 105 | 8.0 | 19.3 | 0.56 | 2.03 | 2.03 | 95 | 1013.3 |
| 20260903164603 | 21 | 37 | 4.8 | 9.7 | 0.53 | 2.01 | 2.01 | 95 | 1014.2 |
| 20260903163112 | 21 | 78 | 0.0 | 3.2 | 1.19 | 1.83 | 1.83 | 95 | 1015.4 |
| 20260903161612 | 21 | 0 | 0.0 | 6.4 | 1.47 | 1.70 | 1.70 | 95 | 1016.5 |
| 20260903160108 | 21 | 253 | 3.2 | 6.4 | 1.42 | 1.47 | 1.47 | 94 | 1017.1 |
| 20260903154608 | 21 | 0 | 0.0 | 1.6 | 1.47 | 1.47 | 1.47 | 93 | 1015.9 |
| 20260903153104 | 21 | 228 | 3.2 | 6.4 | 0.58 | 0.58 | 0.58 | 92 | 1016.3 |
| 20260903151603 | 21 | 113 | 0.0 | 1.6 | 0.20 | 0.20 | 0.20 | 89 | 1015.5 |
| 20260903150117 | 22 | 0 | 0.0 | 0.0 | 0.05 | 0.05 | 0.05 | 83 | 1015.5 |
| 20260903144603 | 22 | 89 | 4.8 | 16.1 | 0.00 | 0.00 | 0.00 | 79 | 1015.1 |
| 20260903143102 | 23 | 40 | 6.4 | 16.1 | 0.00 | 0.00 | 0.00 | 77 | 1014.8 |
| 20260903141605 | 24 | 60 | 8.0 | 19.3 | 0.00 | 0.00 | 0.00 | 76 | 1014.6 |
| 20260903140106 | 25 | 95 | 6.4 | 14.5 | 0.00 | 0.00 | 0.00 | 86 | 1014.3 |
| 20260903134556 | 25 | 81 | 3.2 | 8.0 | 0.00 | 0.00 | 0.00 | 90 | 1014.2 |
| 20260903133102 | 24 | 0 | 3.2 | 8.0 | 0.00 | 0.00 | 0.00 | 90 | 1013.8 |
| 20260903131605 | 25 | 0 | 0.0 | 3.2 | 0.00 | 0.00 | 0.00 | 90 | 1013.0 |
| 20260903130105 | 23 | 274 | 0.0 | 1.6 | 0.00 | 0.00 | 0.00 | 95 | 1012.6 |
| 20260903124602 | 23 | 0 | 0.0 | 1.6 | 0.00 | 0.00 | 0.00 | 96 | 1012.4 |
| 20260903123100 | 22 | 0 | 0.0 | 1.6 | 0.00 | 0.00 | 0.00 | 96 | 1012.4 |
| 20260903121601 | 22 | 0 | 0.0 | 0.0 | 0.00 | 0.00 | 0.00 | 96 | 1012.4 |
| 20260903120059 | 22 | 0 | 0.0 | 0.0 | 0.00 | 0.00 | 0.00 | 96 | 1012.6 |
| 20260903114618 | 22 | 0 | 0.0 | 0.0 | 0.00 | 0.00 | 0.00 | 96 | 1012.5 |
| 20260903113101 | 21 | 0 | 0.0 | 0.0 | 0.00 | 0.00 | 0.00 | 96 | 1012.6 |
| 20260903111617 | 21 | 0 | 0.0 | 0.0 | 0.00 | 0.00 | 0.00 | 95 | 1012.6 |
| 20260903104613 | 22 | 0 | 0.0 | 0.0 | 0.00 | 0.00 | 0.00 | 96 | 1012.5 |
| 20260903103122 | 22 | 0 | 0.0 | 1.6 | 0.00 | 0.00 | 0.00 | 95 | 1012.4 |
| 20260903101604 | 22 | 0 | 0.0 | 0.0 | 0.00 | 0.00 | 0.00 | 95 | 1012.6 |
| 20260903094603 | 22 | 0 | 0.0 | 1.6 | 0.00 | 0.00 | 0.00 | 96 | 1012.7 |
| 20260903093128 | 22 | 0 | 0.0 | 0.0 | 0.00 | 0.00 | 0.00 | 95 | 1012.8 |
| 20260903091604 | 22 | 0 | 0.0 | 0.0 | 0.00 | 0.00 | 0.00 | 95 | 1012.7 |
| 20260903084558 | 22 | 0 | 0.0 | 0.0 | 0.00 | 0.00 | 0.00 | 95 | 1012.5 |
| 20260903083101 | 23 | 0 | 0.0 | 1.6 | 0.00 | 0.00 | 0.00 | 96 | 1012.6 |
| 20260903081559 | 22 | 0 | 0.0 | 0.0 | 0.00 | 0.00 | 0.00 | 95 | 1012.6 |
| 20260903074600 | 22 | 0 | 0.0 | 0.0 | 0.00 | 0.00 | 0.00 | 95 | 1012.6 |
| 20260903073100 | 22 | 0 | 0.0 | 0.0 | 0.00 | 0.00 | 0.00 | 95 | 1012.6 |
| 20260903071632 | 22 | 0 | 0.0 | 0.0 | 0.00 | 0.00 | 0.00 | 95 | 1012.6 |
| 20260903070108 | 23 | 0 | 0.0 | 0.0 | 0.00 | 0.00 | 0.00 | 95 | 1012.6 |
| 20260903064607 | 23 | 0 | 0.0 | 3.2 | 0.00 | 0.00 | 0.00 | 95 | 1012.8 |
| 20260903063107 | 23 | 0 | 0.0 | 0.0 | 0.00 | 0.00 | 0.00 | 95 | 1012.9 |
| 20260903061608 | 23 | 0 | 0.0 | 0.0 | 0.00 | 0.00 | 0.00 | 95 | 1012.9 |
| 20260903054559 | 23 | 0 | 0.0 | 0.0 | 0.00 | 0.00 | 0.00 | 95 | 1012.9 |
| 20260903053103 | 23 | 0 | 0.0 | 0.0 | 0.00 | 0.00 | 0.00 | 95 | 1012.9 |
| 20260903051559 | 23 | 0 | 0.0 | 0.0 | 0.00 | 0.00 | 0.00 | 95 | 1013.0 |
| 20260903050114 | 23 | 0 | 0.0 | 0.0 | 0.00 | 0.00 | 0.00 | 95 | 1013.0 |
| 20260903044603 | 23 | 0 | 0.0 | 0.0 | 0.00 | 0.00 | 0.00 | 95 | 1013.0 |
| 20260903043103 | 23 | 0 | 0.0 | 0.0 | 0.00 | 0.00 | 0.00 | 95 | 1012.9 |
| 20260903041610 | 23 | 0 | 0.0 | 0.0 | 0.00 | 0.00 | 0.00 | 94 | 1012.7 |
| 20260903040110 | 23 | 0 | 0.0 | 1.6 | 0.00 | 0.00 | 0.00 | 94 | 1012.6 |
| 20260903034609 | 24 | 0 | 0.0 | 0.0 | 0.00 | 0.00 | 0.00 | 94 | 1012.6 |
| 20260903033100 | 24 | 0 | 0.0 | 0.0 | 0.00 | 0.00 | 0.00 | 94 | 1012.6 |
| 20260903031600 | 24 | 0 | 0.0 | 0.0 | 0.00 | 0.00 | 0.00 | 94 | 1012.5 |
| 20260903030100 | 25 | 0 | 0.0 | 0.0 | 0.00 | 0.00 | 0.00 | 94 | 1012.6 |
| 20260903024601 | 25 | 0 | 0.0 | 0.0 | 0.00 | 0.00 | 0.00 | 93 | 1012.7 |
| 20260903023057 | 25 | 0 | 0.0 | 0.0 | 0.00 | 0.00 | 0.00 | 93 | 1012.7 |
| 20260903021600 | 25 | 0 | 0.0 | 0.0 | 0.00 | 0.00 | 0.00 | 93 | 1012.5 |
| 20260903014626 | 25 | 0 | 0.0 | 0.0 | 0.00 | 0.00 | 0.00 | 92 | 1012.3 |
| 20260903013108 | 25 | 0 | 0.0 | 0.0 | 0.00 | 0.00 | 0.00 | 91 | 1012.2 |
| 20260903011601 | 26 | 0 | 0.0 | 0.0 | 0.00 | 0.00 | 0.00 | 91 | 1012.0 |
| 20260903010059 | 26 | 0 | 0.0 | 0.0 | 0.00 | 0.00 | 0.00 | 90 | 1011.8 |
| 20260903004602 | 26 | 0 | 0.0 | 0.0 | 0.00 | 0.00 | 0.00 | 88 | 1011.6 |
| 20260903003114 | 27 | 0 | 0.0 | 0.0 | 0.00 | 0.00 | 0.00 | 87 | 1011.6 |
| 20260903001600 | 28 | 0 | 0.0 | 0.0 | 0.00 | 0.00 | 0.00 | 85 | 1011.7 |
| 20260903000108 | 29 | 0 | 0.0 | 0.0 | 0.00 | 0.00 | 0.00 | 81 | 1011.7 |
| 20260902234604 | 30 | 0 | 0.0 | 0.0 | 0.00 | 0.00 | 0.00 | 81 | 1011.8 |
| 20260902233059 | 30 | 0 | 0.0 | 0.0 | 0.00 | 0.00 | 0.00 | 79 | 1011.9 |
| 20260902231601 | 30 | 0 | 0.0 | 0.0 | 0.00 | 0.00 | 0.00 | 80 | 1011.8 |
| 20260902230119 | 30 | 0 | 0.0 | 0.0 | 0.00 | 0.00 | 0.00 | 80 | 1011.8 |
| 20260902224613 | 30 | 0 | 0.0 | 0.0 | 0.00 | 0.00 | 0.00 | 78 | 1011.8 |
| 20260902223114 | 30 | 0 | 0.0 | 0.0 | 0.00 | 0.00 | 0.00 | 77 | 1011.9 |
| 20260902221608 | 30 | 0 | 0.0 | 0.0 | 0.00 | 0.00 | 0.00 | 76 | 1012.0 |
| 20260902220056 | 30 | 0 | 0.0 | 1.6 | 0.00 | 0.00 | 0.00 | 74 | 1012.1 |
| 20260902214622 | 31 | 262 | 0.0 | 1.6 | 0.00 | 0.00 | 0.00 | 71 | 1011.8 |
| 20260902213059 | 31 | 0 | 0.0 | 1.6 | 0.00 | 0.00 | 0.00 | 72 | 1012.0 |
| 20260902211558 | 31 | 0 | 0.0 | 1.6 | 0.00 | 0.00 | 0.00 | 68 | 1012.1 |
| 20260902210058 | 31 | 253 | 0.0 | 1.6 | 0.00 | 0.00 | 0.00 | 70 | 1012.1 |
| 20260902204610 | 31 | 0 | 0.0 | 3.2 | 0.00 | 0.03 | 0.00 | 69 | 1012.2 |
| 20260902203101 | 31 | 256 | 0.0 | 3.2 | 0.00 | 0.03 | 0.00 | 66 | 1012.1 |
| 20260902201629 | 31 | 246 | 1.6 | 4.8 | 0.00 | 0.03 | 0.00 | 64 | 1012.1 |
| 20260902200058 | 32 | 0 | 1.6 | 3.2 | 0.00 | 0.03 | 0.00 | 64 | 1012.3 |
| 20260902194558 | 31 | 257 | 1.6 | 4.8 | 0.00 | 0.10 | 0.00 | 65 | 1012.5 |
| 20260902193104 | 31 | 280 | 1.6 | 6.4 | 0.00 | 0.10 | 0.00 | 64 | 1012.5 |
| 20260902191600 | 31 | 276 | 1.6 | 9.7 | 0.00 | 0.10 | 0.00 | 61 | 1012.7 |
| 20260902190100 | 31 | 259 | 0.0 | 9.7 | 0.00 | 0.10 | 0.00 | 63 | 1012.7 |
| 20260902184645 | 32 | 243 | 1.6 | 4.8 | 0.00 | 0.10 | 0.00 | 63 | 1012.8 |
| 20260902183105 | 31 | 0 | 1.6 | 8.0 | 0.00 | 0.10 | 0.00 | 64 | 1012.8 |
| 20260902181603 | 31 | 253 | 0.0 | 3.2 | 0.00 | 0.10 | 0.00 | 65 | 1012.9 |